sat.trackr.live / text

‹ back to catalog

STARLINK-11298 [DTC]

NORAD 61211 · 2024-171M

PAYLOAD ACTIVE UNKNOWN

§ Identity

Operator
Country
US
Launch date
2024-09-20
Launch site
AFWTR
Launch vehicle
Mass (kg)
RCS (m²)

Purposes: comms

External: N2YO · Heavens-Above · Gunter

§ Orbital elements

Epoch: 2026-05-25T00:33:14.052384Z

Period
91.74 min
Inclination
53.1588°
Eccentricity
0.0000580
Mean motion
15.69708180 rev/d
Perigee alt
359.3 km
Apogee alt
360.1 km
Semi-major
6,737.9 km
B*
5.5753e-6
RAAN
160.2628°
Arg perigee
83.5890°
Mean anomaly
276.5194°
Rev number
9,638

§ Raw data

STARLINK-11298 [DTC]1 61211U 24171M   26145.02307931  .00000088  00000+0  55753-5 0  99942 61211  53.1588 160.2628 0000580  83.5890 276.5194 15.69708180 96389

JSON: /api/v1/satellites/61211 · /tle

For live sub-satellite position, see the globe view (requires WebGL).

§ Visibility from observer

Set your observer location to see the next 7 days of passes ≥ 10°. The values pass through the URL so the page stays shareable.

No JS? Fill the form by hand. The geolocation button needs JavaScript.